Location: Central Falls
(41.8900°N, 71.3929°W)
Time: 10:54:54
(UTC+00:00)

A-11 Canister half - Pass Details

Date: 04 December 2023
Orbit: 1526 x 1682 km, 47.3° (Epoch: 29 February)

Event Time Altitude Azimuth Distance (km) Brightness Sun altitude
Rises 02:47:33 0° 273° (W) 4,932 12.0 -60.0°
Reaches altitude 10° 02:50:48 10° 276° (W) 3,938 11.4 -60.5°
Enters shadow 02:52:17 16° 279° (W) 3,493 11.1 -60.8°
